GPS BIIF-5 (39533 NORAD) Tracking and Keplerian Element Data

This shows tracking and keplerian element data for the satellite.

Feedback or suggestion? Click here.




ElementValue
Catalog39533
NameGPS BIIF-5
Epoch Orbit6241
Epoch Day269.55856162
Epoch Year2022
RAAN204.7292
Inclination53.6164
Eccentricity0.0060584
Argument of Perigee209.7558
Mean Anonmoly149.8932
Mean Motion2.00559116
Decay Rate1.8E-07
L11 39533U 14008A 22269.55856162 .00000018 00000+0 00000+0 0 9992
L22 39533 53.6164 204.7292 0060584 209.7558 149.8932 2.00559116 62413

Live tracking and technical data element details for GPS BIIF-5 (NORAD 39533). GPS BIIF-5 can be tracked NOW for your location showing map with azimuth and elevation plus other details from your city location.

Track the satellite on the map from your city or location and see movement details for azimuth, elevation, latitude, longitude, range, height, and movement on the map or in text.







IsCatalogInMostPopularTable: catalog: 39533, numindb: 666
Update: records affected: 1



GetName: 39533 GPS BIIF-5

Hit Count: updated at: Wed, 28 Sep 2022 23:10:30 GMT